Starlink 4080

operational
NORAD ID: 52835 Int'l Des: 2022-062 Owner: SPXS Country: US Constellation: starlink
LEOCIRCULAR

Über Starlink 4080

Beschreibung wird geladen...

Live-Position

3D-Globus wird geladen...

Nächste Überflüge

Höhenverlauf

Altitude vs Time

uPlot chart will show altitude changes over time

Zweizeiliger Elementsatz

1 52835U 22062F 25306.11285834 .00002737 00000-0 19004-3 0 9999
2 52835 53.2168 246.8366 0001257 95.0131 265.1004 15.08821637186520
Epoch: 2. Nov. 2025 • Age: 19 hours

Aktueller Status

Höhe 541.8 km
Geschwindigkeit 7.59 km/s
Subsatellitenpunkt -5.48°S, 129.57°W
Startdatum 17. Juni 2022
Alter 3.3 years
Typ internet

Technische Details

Klassifizierung Payload
Masse 297.00 kg
Trockenmasse 275.00 kg
Gesamtmasse 297.00 kg
Länge 0.20 m
Durchmesser 2.80 m
Spannweite 9.00 m
Form Box + pan
Hersteller SPXS
Bus-Typ Starlink
Phasenstatus In Orbit
Besitzer/Staat SPXS/US

Große Konstellationen

Loading constellations...